Find Starlink 4002

NORAD ID: 52612 Int'l Des: 2022-052 Owner: SPXS Country: US Constellation: starlink operational
LEOCIRCULAR

リアルタイム位置

3D地球を読み込み中...

Starlink 4002について

説明を読み込み中...

次回通過

Passes for default location (London). Set your location on the main map for personalized predictions.

高度履歴

Loading altitude history...

軌道要素

1 52612U 22052Q 26124.15029377 -.00003702 00000-0 -21480-3 0 9998
2 52612 53.2191 30.1483 0001328 93.2677 266.8467 15.08810088219231
Epoch: May 4, 2026 • Age: 11 hours

現在のステータス

高度 542.7 km
速度 7.59 km/s
衛星直下点 -9.31°S, 61.69°W
打ち上げ日 May 14, 2022
運用期間 3.9 years
タイプ internet

技術仕様

分類 Payload
質量 297.00 kg
乾燥質量 275.00 kg
総質量 297.00 kg
長さ 0.20 m
直径 2.80 m
スパン 9.00 m
形状 Box + pan
製造者 SPXS
バスタイプ Starlink
フェーズステータス In Orbit
所有者/国 SPXS/US

Most Searched